FENGYUN 1C DEB, 32425

Orbit data source: Space-Track

FENGYUN 1C DEB, 32425 is space debris in SSO originally from a launch on Mon, 10 May 1999 UTC launched from the Taiyaun Space Center, China (TSC). Fengyun 1C debris stems from the Chinese weather satellite Fengyun-1C, which was intentionally destroyed by a Chinese anti-satellite missile in 2007. This event dramatically increased the amount of space debris, with thousands of trackable fragments posing hazards to satellites and human spaceflight. The Fengyun 1C debris cloud has become a focal point in discussions about space sustainability and the need for international regulations to prevent the creation of new debris.

Loading next visibility...
Identifier
32425, 1999-025DAM
Orbit
SSO
Country
Flag of CNCN / PRC
Related business
Manufacturer
Unknown
Mission
Spacecraft
Bus & Motor
Unknown
Mass
Unknown
Launch date (UTC)
1999-05-10 (27 years ago)
Launch vehicle
Unknown
Launch site
Taiyaun Space Center, China (TSC)
Object type
Payload
Rocket body
Debris
Shape & HBR
Unknown shape, 0.1 m
Radar Cross Section
Small (<0.1 m²)

Expand to show TLE details & history
Last TLE update: 23 hours ago

TLE from 23 hours ago
0 FENGYUN 1C DEB
1 32425U 99025DAM 26177.55027888  .00000765  00000-0  30045-3 0  9990
2 32425  96.7251 283.2890 0233132  68.4364 294.1487 14.17289506723083
Epoch: 2026-06-26T13:12Z
TLE epoch observation values (Epoch: 2026-06-26T13:12:24.095Z)
Latitude
Longitude
170.51143°
Altitude
772.008 km
Speed
7.502 km/s
True Right ascension
18h 53m 09s
True Declination
0° 00' 00"
Sunlit
Object was in full shadow at epoch
Visualization orbit readout
Latitude
Unknown
Longitude
Unknown
Altitude
Unknown
Speed
Unknown
Apparent Right ascension
Unknown
Apparent Declination
Unknown
Sunlit
N/A
Visualization observer readout
Local Sidereal Time
23:56:22
Azimuth
Unknown
Elevation
Unknown
Doppler factor
Unknown
Orbital elements
Apogee altitude
999.692 km
Perigee altitude
663.527 km
Semi-major axis
7,209.747 km
Eccentricity
0.02331
Inclination
96.7251°
RAAN
283.289°
Arg. of periapsis
68.4364°
True anomaly
291.68236°
Mean anomaly
294.1487°
Eccentric anomaly
292.9184°
Mean motion
3.54538 °/min
Orbital period
101.54 mins
BSTAR
0.00030045
Loading maneuver chart data...
Computing Atmospheric mass density...
Loading historical data...
Loading historical data...
Loading historical data...
Loading historical data...
Loading historical data...
Loading historical data...
Loading historical data...

Documentation

Showing up to 5 results
|